Temp
12 12 13 11 10 10 11 12 13 14 14 13 13 14 13 13 13 13 14 15 15 15 16 16 17 17 17 21 18 16 16 16 16 17 19 21 23 23 23 22 23 22 21 21 20 19 20
12 12 12 12 12 12 12 13 14 14 14 14 14 13 13 13 14 15 15 15 15 15 15 16 17 17 19 20 16 16 15 16 16 18 18 20 20 21 22 21 22 21 21 20 20 20 20
12 12 12 12 13 13 13 13 14 14 13 13 14 13 13 14 14 15 16 15 15 15 16 17 17 17 20 17 16 16 16 15 15 16 19 17 18 21 21 21 20 20 21 20 20 20 20
12 12 12 12 12 13 13 14 14 14 14 14 14 13 14 14 15 16 16 16 15 16 16 17 17 18 19 16 16 17 16 17 17 16 17 16 18 20 20 20 21 21 21 22 20 20 20
12 12 12 12 12 12 13 13 13 14 14 14 14 14 14 15 15 17 17 16 16 16 17 18 18 20 19 17 18 16 16 16 17 17 17 17 19 20 20 22 22 22 23 23 22 19 19
12 12 12 12 12 12 12 13 13 14 14 14 15 14 14 16 15 17 17 17 17 17 17 18 18 21 19 18 16 15 16 15 17 19 19 20 21 22 22 23 22 21 21 22 21 20 19
12 12 12 12 11 11 12 12 13 14 14 14 15 14 15 15 15 16 16 16 19 20 17 17 17 18 18 17 16 18 16 17 19 21 20 20 21 20 19 19 18 19 19 20 22 18 17
12 12 12 11 11 12 12 12 12 12 14 14 15 15 15 15 15 15 14 14 11 12 18 16 16 17 16 15 19 19 17 20 20 20 20 21 19 18 17 17 18 19 19 21 20 17 17
12 12 12 11 11 12 12 12 12 12 13 14 15 15 15 15 15 13 11 9 8 9 19 18 17 17 17 17 18 17 17 18 18 19 20 20 18 16 17 18 18 19 19 18 17 17 18
12 12 11 11 11 11 12 12 12 12 13 13 15 15 15 15 14 11 11 9 9 9 20 19 19 18 18 17 18 16 16 16 18 18 18 18 17 16 17 17 17 18 16 16 16 16 19
12 12 11 11 11 12 12 12 12 12 13 13 14 15 14 14 12 13 10 9 9 11 21 19 18 17 18 18 17 18 15 18 17 17 17 17 17 16 17 16 16 18 15 15 15 16 16
12 12 11 11 11 12 12 12 12 12 13 13 13 14 14 12 12 10 10 9 11 19 17 19 17 17 19 18 18 18 18 17 16 17 17 16 15 16 16 16 15 15 15 16 15 16 16
12 12 12 11 12 12 12 12 12 13 13 13 14 14 13 12 12 10 9 12 20 19 18 18 16 17 17 17 18 17 17 17 17 15 18 18 17 16 15 16 15 16 17 17 17 16 18
12 12 12 12 12 12 12 12 12 12 13 13 14 14 13 12 11 10 11 18 17 17 18 16 16 17 17 16 17 17 18 18 17 17 17 16 17 16 15 15 14 16 16 15 15 17 18
12 12 12 12 12 12 12 12 12 12 13 13 14 13 13 12 12 10 16 18 17 17 15 15 17 18 19 17 16 18 17 16 15 15 16 16 18 15 14 15 14 16 16 15 15 15 13
12 12 12 12 12 12 12 12 12 12 13 13 12 13 14 14 13 12 20 16 16 14 14 15 17 17 18 18 17 18 17 14 15 14 15 16 15 16 14 14 14 14 15 15 15 13 15
12 13 12 12 12 12 12 12 12 12 13 13 12 16 16 15 14 19 17 15 15 14 13 14 16 16 17 16 16 17 16 14 14 14 15 15 15 16 15 15 16 14 15 14 14 14 15
12 12 12 12 12 12 12 12 12 12 12 13 13 17 16 16 18 17 16 14 11 14 14 14 14 15 15 15 15 16 15 15 13 13 14 14 14 14 16 15 14 14 15 15 14 14 13
12 12 12 13 12 12 12 12 12 11 12 12 14 15 16 14 18 17 15 14 14 14 14 14 14 13 14 14 14 15 14 13 13 13 14 14 14 13 17 13 12 13 14 14 14 13 12
13 13 12 12 12 12 12 12 12 11 11 11 14 16 17 16 14 17 16 16 15 12 13 13 13 13 13 14 14 14 14 13 12 12 10 11 13 13 15 16 15 13 13 13 13 12 13
13 13 12 12 12 12 12 11 12 11 11 12 11 14 11 16 16 15 14 14 15 15 13 13 13 13 13 13 14 14 13 13 13 10 11 12 11 13 13 13 12 12 12 12 12 12 11
13 13 13 12 12 12 12 11 11 11 11 11 10 11 11 14 12 13 11 15 15 14 14 13 12 12 12 12 14 13 13 12 12 12 11 11 10 11 9 11 11 10 11 11 11 11 11
12 12 12 12 12 12 12 11 11 11 10 9 7 7 10 8 9 11 14 14 13 12 11 11 11 10 11 12 12 12 12 12 12 11 10 10 10 9 9 9 9 10 10 10 11 11 9
12 12 12 12 12 12 11 11 11 11 10 10 8 7 8 10 8 10 10 11 10 10 10 9 8 8 10 10 11 11 10 9 9 9 10 9 8 8 7 9 9 7 8 8 9 9 7
10 11 11 11 11 11 11 11 11 10 10 9 9 7 7 9 8 8 8 8 7 6 7 8 9 10 9 10 10 11 11 9 8 6 6 7 7 6 6 8 11 7 7 7 7 7 7
9 9 9 10 11 11 11 10 10 10 10 9 8 8 6 7 7 7 6 6 6 5 6 7 8 8 8 9 9 9 10 10 8 6 5 5 6 6 6 5 9 7 7 7 7 7 5
6 8 8 9 8 9 10 10 10 10 10 8 8 7 6 7 5 5 6 5 5 5 5 7 7 7 8 8 7 8 8 8 7 8 5 4 5 5 6 6 9 6 6 6 7 5 5
6 6 7 9 9 9 9 9 9 10 8 7 6 6 6 6 3 3 4 4 3 4 6 5 6 6 6 7 7 8 7 7 6 7 6 7 6 6 7 6 7 6 6 6 4 5 4
6 6 7 8 8 9 9 9 9 9 9 7 4 4 5 5 4 2 3 3 4 5 5 5 5 6 6 6 5 6 6 5 6 7 6 6 8 7 8 8 5 5 5 4 3 3 3
Height
866 863 859 858 857 855 852 849 845 841 838 834 829 825 820 816 813 809 807 805 804 803 802 802 802 802 802 800 809 809 803 799 795 793 791 789 787 785 786 787 785 787 792 794 795 797 797
868 865 861 860 859 856 854 850 847 842 839 834 830 825 821 817 814 810 807 806 805 805 804 804 803 803 803 807 814 810 805 803 799 796 794 791 791 789 788 791 791 793 795 796 797 797 798
870 867 864 862 861 858 855 852 848 844 839 835 831 826 822 817 814 810 809 808 807 807 806 804 803 804 805 814 812 810 807 806 803 803 800 797 794 789 791 795 797 797 797 799 800 800 799
871 869 867 865 863 860 856 853 849 845 841 837 832 827 822 818 814 811 809 808 807 807 807 807 806 805 811 814 814 812 808 807 806 805 804 801 799 795 792 796 796 797 796 793 799 800 799
873 870 869 867 865 862 858 854 850 847 843 838 833 828 823 819 814 810 810 809 808 808 807 806 806 805 812 813 812 812 809 808 807 806 804 802 799 798 797 791 790 791 791 791 791 800 801
874 872 871 869 867 864 860 856 852 848 844 839 834 829 824 820 815 810 809 810 810 809 809 808 808 808 813 816 814 811 809 807 804 803 802 799 796 793 792 788 796 797 796 793 798 798 799
875 874 872 871 869 866 862 859 855 850 845 840 835 830 825 821 817 812 811 811 813 812 814 819 821 817 816 817 814 811 809 807 803 800 805 805 803 806 810 808 807 805 802 797 788 802 807
876 875 874 872 870 867 864 860 856 852 847 842 837 832 826 823 820 815 813 819 827 828 822 824 822 821 822 820 814 811 810 807 803 806 801 802 810 813 815 817 816 809 803 793 796 804 805
876 875 875 874 871 868 865 862 858 854 849 844 838 833 828 824 822 821 822 828 828 828 817 824 824 822 822 821 818 817 816 813 811 809 804 802 817 821 819 812 811 804 808 808 815 806 797
876 876 875 874 872 870 866 863 859 855 850 845 840 834 830 824 826 827 830 830 829 830 816 827 824 826 825 823 821 822 820 819 812 813 813 812 816 819 818 817 819 813 817 817 815 811 797
876 875 875 874 873 870 867 864 860 856 852 847 841 836 832 828 831 832 835 831 831 832 824 829 827 828 826 826 828 823 825 817 818 819 818 817 818 819 819 821 823 814 821 818 815 814 811
874 875 875 874 873 871 868 865 861 857 852 847 842 837 834 833 834 834 831 830 832 822 844 831 832 832 826 827 827 824 822 822 824 821 819 821 825 824 821 821 823 820 818 813 816 809 812
873 874 874 873 873 871 869 866 862 858 853 848 843 838 836 835 837 832 831 831 820 830 834 836 838 833 832 831 825 828 829 827 828 832 818 814 817 821 825 821 822 817 811 807 805 811 795
871 872 872 872 872 870 868 866 863 859 854 849 844 839 837 836 833 831 833 821 839 838 834 840 840 834 831 835 829 828 824 824 827 827 823 824 821 821 826 827 829 822 819 825 822 805 794
869 870 870 870 870 869 868 865 862 859 854 848 843 840 837 836 832 830 827 830 842 844 848 844 835 831 827 832 836 825 829 833 836 835 834 827 815 827 828 827 831 822 820 824 821 812 821
866 867 868 868 869 868 867 865 862 859 855 850 845 841 838 834 831 830 820 846 848 853 852 848 839 842 835 834 835 828 830 840 840 842 839 833 830 820 827 829 828 826 823 820 818 822 803
863 863 865 866 866 866 866 864 862 859 855 852 847 841 838 834 831 825 839 850 852 855 856 853 847 844 843 846 843 839 836 843 843 843 840 837 834 820 823 820 813 823 821 823 821 814 808
859 861 862 863 864 865 864 864 863 861 856 853 850 845 839 835 835 838 847 854 862 856 857 853 853 850 848 850 844 844 845 842 847 846 841 839 834 827 812 812 821 822 816 812 818 812 816
856 858 859 860 862 862 863 863 863 862 859 858 854 849 842 838 842 844 854 855 857 856 857 857 854 857 856 853 854 845 846 852 851 846 840 840 832 829 802 821 823 821 816 816 812 821 815
851 853 856 857 858 860 861 862 862 862 860 861 857 851 845 847 853 849 849 850 852 862 858 859 856 859 857 851 851 849 845 850 856 853 858 853 837 830 815 804 813 817 817 819 819 818 808
846 849 851 853 855 856 858 859 859 861 861 862 861 857 862 849 848 853 855 852 850 853 860 860 855 856 855 853 846 847 848 848 848 857 854 850 839 831 823 818 822 818 814 816 816 812 817
840 843 845 849 851 853 855 856 857 859 860 862 863 862 862 855 861 860 862 849 852 851 856 856 859 858 856 854 847 850 849 850 847 851 853 853 842 838 840 827 825 824 819 815 815 814 811
832 836 839 842 845 848 850 852 853 855 858 860 862 863 862 868 866 861 852 850 855 859 862 861 863 867 858 854 855 855 855 856 851 851 851 853 849 848 837 835 834 819 815 815 813 815 821
824 828 831 835 839 842 845 846 847 849 853 855 857 859 864 858 865 860 856 856 862 862 863 865 868 870 864 863 859 854 854 854 857 854 852 853 860 859 851 839 832 831 825 825 821 822 831
819 821 825 828 832 836 839 840 841 843 846 849 850 853 858 855 861 860 858 861 864 870 870 866 863 863 863 862 857 843 842 853 854 861 865 864 862 865 858 841 812 829 832 830 831 829 834
818 819 821 823 826 828 831 833 835 836 838 841 844 847 850 855 856 859 863 865 866 870 871 866 866 865 865 860 858 856 839 837 846 856 863 864 861 863 857 862 828 830 839 839 837 827 842
815 817 818 820 822 824 825 828 831 831 833 837 839 843 847 851 853 855 861 861 865 866 867 862 863 866 865 857 858 854 847 852 852 845 863 868 866 861 854 851 825 841 843 843 835 843 844
813 814 817 817 821 821 823 825 827 829 829 833 836 839 844 848 853 853 855 856 862 861 860 865 865 864 868 864 858 849 852 850 857 847 849 849 849 849 846 843 833 842 840 845 852 851 848
810 812 813 815 818 817 820 823 825 827 826 830 835 839 842 845 848 852 852 853 852 854 858 861 860 859 860 863 863 857 856 860 854 843 852 848 837 844 837 829 842 845 848 854 856 855 852
Wind_Speed
17 19 19 18 17 17 18 19 20 22 23 24 25 26 26 22 22 23 12 9 8 7 5 4 2 2 2 5 6 13 16 13 8 7 8 5 6 4 2 3 2 4 3 1 2 1 4
17 19 20 20 19 19 19 20 21 22 24 25 26 27 27 22 21 19 9 7 7 6 7 6 3 3 3 6 8 14 14 11 12 9 12 8 5 5 4 3 4 3 1 1 0 2 2
16 19 21 21 20 20 20 21 21 23 24 25 27 27 26 21 21 16 8 6 6 5 5 5 5 6 15 5 6 13 12 10 10 10 6 8 3 2 2 2 2 2 2 2 1 5 3
14 18 20 21 21 22 21 22 23 24 25 27 28 27 27 19 22 13 5 8 4 5 5 4 4 1 5 3 5 14 12 5 8 9 6 6 5 4 3 2 2 3 3 4 6 6 2
12 16 18 20 21 22 23 24 24 26 27 29 28 27 27 19 24 11 3 9 9 4 6 3 3 4 4 3 5 12 9 7 9 5 5 4 4 3 2 3 4 5 7 4 1 3 4
10 13 16 18 20 22 24 25 26 26 27 29 28 27 26 18 26 13 2 2 9 6 5 4 3 4 4 5 7 9 8 4 2 4 3 2 2 2 2 3 2 2 5 4 6 4 6
7 10 13 16 18 21 24 26 28 29 30 31 29 26 26 14 22 13 5 1 3 2 13 6 3 3 2 9 3 11 9 5 2 1 4 5 2 3 6 6 4 1 4 7 5 3 11
5 7 11 14 16 19 22 25 27 30 31 32 30 26 25 9 15 18 9 6 4 3 6 4 2 1 2 5 3 13 15 2 5 5 1 3 2 3 3 5 7 6 6 3 4 0 7
4 5 9 12 15 17 20 23 26 29 31 34 31 25 23 9 11 14 18 8 3 3 1 3 3 4 4 6 4 10 12 3 4 4 7 3 6 3 4 4 7 4 6 6 6 12 7
4 5 8 11 13 16 19 22 26 28 31 35 32 25 20 12 6 7 6 9 4 2 2 6 4 5 5 5 1 5 7 3 1 3 3 2 3 2 6 3 6 7 4 5 8 7 3
7 6 7 10 12 15 17 21 25 28 30 33 33 23 18 15 3 5 7 6 2 2 1 5 3 4 6 5 8 5 5 3 4 3 2 3 2 3 2 3 4 4 8 9 8 8 6
10 8 8 10 12 14 17 20 23 26 30 33 34 21 14 9 5 7 8 2 1 2 1 3 4 9 6 7 5 9 3 2 2 3 1 3 1 2 4 4 4 8 8 9 4 4 3
13 12 11 11 12 14 16 19 22 25 29 32 32 17 11 10 7 12 5 3 2 3 2 5 3 6 3 4 2 6 6 8 5 4 3 2 3 2 1 6 2 7 8 3 3 3 2
15 14 13 12 12 13 16 18 20 24 28 33 31 12 6 8 16 7 3 3 3 2 2 1 3 5 2 7 2 5 5 3 6 6 3 3 2 1 3 3 3 6 5 1 5 3 6
15 15 15 14 13 13 14 16 19 23 27 33 28 10 3 12 15 4 4 5 4 3 4 7 5 4 2 1 4 4 4 4 5 9 5 5 1 3 2 1 3 3 3 3 5 4 4
17 16 15 15 14 13 14 15 17 21 25 31 17 7 4 23 10 3 2 4 2 3 4 3 6 4 5 8 7 7 2 3 3 5 5 4 7 3 3 2 3 4 3 4 4 4 5
16 16 16 15 13 13 13 14 16 19 23 23 7 4 6 22 5 1 4 4 2 2 3 4 4 5 4 5 6 6 3 3 3 3 5 5 3 2 3 6 4 4 3 5 4 3 4
18 17 16 15 14 13 12 13 13 16 20 17 5 4 13 16 3 3 3 3 2 2 2 1 2 2 3 5 6 4 5 4 2 3 5 2 5 6 12 3 3 8 11 9 5 3 3
22 20 18 16 15 13 12 12 10 11 15 10 5 3 8 8 3 4 2 2 1 2 2 3 2 2 2 3 5 3 3 1 2 3 3 2 5 6 3 2 3 4 6 9 8 4 11
24 22 21 18 16 15 13 12 10 8 8 7 3 3 2 3 2 4 2 1 0 1 2 2 1 2 3 4 4 6 4 1 3 4 4 3 8 12 11 15 11 11 9 9 11 10 13
27 26 23 20 18 17 16 14 10 8 4 4 3 2 0 3 2 2 1 1 1 2 3 2 2 5 4 4 7 6 3 8 6 2 4 4 9 14 18 19 18 20 19 18 18 18 16
31 28 26 24 22 20 18 16 14 11 6 1 2 2 2 0 1 3 2 3 3 2 2 2 4 2 6 7 7 16 14 10 10 2 4 2 8 11 15 17 16 19 18 18 17 17 20
34 31 30 27 25 22 21 19 18 16 12 3 3 1 1 2 1 1 3 1 3 3 2 2 2 3 9 10 8 9 10 12 15 11 9 6 6 8 6 5 12 13 8 8 9 5 7
32 34 29 28 26 24 23 22 21 21 21 13 7 6 3 3 4 5 3 3 5 3 1 2 3 1 2 5 10 13 10 12 13 13 10 8 5 4 7 10 5 3 4 3 5 1 1
14 22 29 29 26 24 25 23 22 25 25 26 13 8 3 2 2 2 5 3 2 2 2 6 7 4 1 4 6 7 4 4 4 1 5 8 7 4 4 6 13 3 1 2 3 0 1
12 12 13 17 22 24 22 17 17 21 26 30 19 18 5 4 6 4 3 3 3 3 2 4 1 1 1 2 2 3 3 4 4 4 2 5 9 5 1 4 5 6 2 5 3 5 4
9 10 13 14 13 16 16 15 17 17 27 27 10 23 5 2 3 5 4 4 4 3 1 0 3 3 2 4 4 5 4 1 3 4 4 4 4 11 9 6 7 4 5 3 5 3 6
11 10 12 12 14 14 14 15 16 13 28 28 7 21 7 1 2 6 6 5 4 3 4 4 2 3 4 5 4 3 4 2 3 2 4 7 6 5 5 5 7 5 1 5 5 7 10
13 12 12 12 13 13 13 14 15 14 24 30 6 19 13 3 3 4 5 6 4 3 4 4 2 2 1 3 3 1 3 2 3 3 2 4 4 2 5 2 4 4 4 4 7 10 13
Wind_Direction
37 32 32 25 19 19 15 12 11 11 8 4 2 2 3 4 3 3 12 22 34 31 43 47 73 66 350 88 32 345 353 360 357 13 32 21 31 344 38 72 45 72 119 116 105 250 295
38 35 34 28 20 20 17 15 12 12 10 5 2 2 3 5 3 4 14 27 44 51 53 52 58 40 296 75 347 350 347 0 11 30 42 47 50 358 79 40 352 60 77 83 16 10 335
38 37 35 31 24 22 19 17 15 13 8 4 2 3 2 4 3 2 22 31 49 45 49 50 61 81 61 74 355 358 349 359 357 11 18 36 34 337 329 102 36 73 244 191 55 354 342
39 39 36 32 26 23 19 16 15 13 10 7 6 6 2 8 2 2 51 35 47 51 30 29 47 343 72 350 6 2 359 348 360 12 18 1 348 79 27 119 184 267 261 271 94 351 76
39 38 33 30 26 24 20 16 15 13 11 9 7 7 3 8 2 3 178 50 38 57 47 58 32 300 78 338 1 355 5 347 323 337 10 342 314 6 190 248 201 191 317 324 190 94 315
36 33 29 25 24 24 22 19 16 14 12 10 7 4 5 8 7 11 153 210 47 33 353 4 42 155 52 340 319 331 343 344 335 312 259 292 275 237 19 262 210 337 318 319 302 40 317
27 24 22 19 19 20 20 20 19 16 11 9 7 4 2 12 14 18 76 359 205 109 35 51 26 67 351 328 296 15 346 322 258 207 1 12 326 24 11 3 14 332 282 286 305 25 315
4 9 11 9 10 15 17 16 17 16 12 8 6 4 3 7 23 36 57 56 35 348 87 41 33 37 342 340 322 12 357 344 36 40 334 207 121 61 329 331 313 297 283 308 300 13 315
326 350 355 357 1 6 10 12 12 11 10 7 4 5 3 5 11 32 62 46 343 342 231 65 32 350 355 339 28 357 1 341 13 33 25 48 58 357 317 303 305 269 314 346 314 318 252
288 324 336 345 353 357 3 4 6 7 6 6 3 1 5 5 49 10 44 357 354 328 186 26 17 40 337 332 10 356 8 337 51 28 360 43 83 322 312 311 329 298 359 316 300 313 304
264 295 318 331 341 350 355 358 360 1 1 3 1 358 4 33 16 37 326 340 358 281 54 12 35 324 336 360 327 45 354 303 3 22 275 52 333 332 286 4 330 335 314 300 292 285 314
255 272 292 313 327 339 348 351 355 357 356 357 357 358 9 17 30 351 334 326 254 236 304 39 5 3 352 18 14 330 338 67 332 299 5 41 39 325 346 304 267 308 293 250 276 265 242
249 261 277 296 314 327 338 344 349 352 353 353 353 353 12 29 336 327 333 222 228 54 186 10 342 344 336 353 349 5 359 29 10 359 9 294 167 163 295 292 226 277 283 294 234 214 324
250 257 268 281 299 315 327 336 343 347 348 347 349 351 348 353 344 340 269 232 69 248 29 32 303 305 8 357 59 350 321 355 45 337 300 339 274 210 42 357 311 325 332 325 297 297 310
253 259 265 274 287 302 316 327 337 344 346 344 348 345 334 333 342 345 261 47 35 13 345 334 294 288 112 37 313 326 37 16 7 8 338 340 281 111 44 350 325 31 257 4 281 236 269
251 258 264 270 279 291 304 317 330 341 345 342 342 336 284 344 344 265 28 74 32 5 335 316 349 4 334 355 327 344 339 57 8 13 341 9 289 121 116 229 184 262 354 242 195 272 266
252 255 260 265 273 282 293 307 324 338 346 343 347 327 332 350 351 16 61 63 45 43 347 340 354 322 346 335 328 321 355 88 31 338 320 312 237 158 188 198 273 199 230 239 298 256 273
252 254 257 262 267 274 285 297 318 335 350 348 350 314 342 351 29 30 48 21 354 4 330 350 306 328 334 332 306 306 312 348 8 316 301 10 299 276 272 118 276 273 267 260 252 210 236
253 253 254 256 260 266 273 283 303 328 355 345 334 298 338 356 42 53 113 104 352 317 339 336 354 1 358 309 308 283 310 34 306 294 311 46 236 298 239 180 166 233 227 243 267 282 258
252 252 252 252 254 256 260 265 281 305 345 353 316 332 24 54 37 350 347 123 110 181 257 254 289 256 288 269 221 289 288 314 321 287 352 304 259 249 266 302 318 283 239 232 243 259 266
250 250 250 251 251 250 251 254 258 266 309 348 13 64 31 333 85 348 312 346 225 234 234 241 203 243 261 280 288 259 301 293 235 157 242 265 271 272 274 286 289 278 271 263 257 252 256
250 250 250 248 247 247 248 248 245 242 233 231 169 218 206 307 287 270 156 197 249 196 244 209 244 289 240 250 278 299 312 296 272 192 276 243 276 309 289 272 274 284 277 270 264 264 268
250 249 246 245 244 246 246 243 240 234 210 173 165 131 83 152 183 210 219 182 211 148 142 286 275 300 270 282 306 303 295 285 274 269 280 263 297 319 283 352 308 281 314 258 249 279 301
244 248 248 242 243 243 241 247 237 234 225 209 177 136 144 229 190 205 198 185 205 223 226 206 198 180 330 334 300 266 256 268 268 261 236 259 271 270 291 311 258 78 60 1 278 358 186
219 226 239 236 235 241 245 251 251 244 235 219 195 163 156 225 202 264 206 168 98 38 273 259 247 234 64 316 299 297 218 229 198 222 268 239 238 268 266 286 292 162 72 7 336 99 64
255 245 235 225 232 234 236 243 257 258 249 218 214 194 154 135 225 79 139 170 182 194 266 225 111 136 180 269 255 267 278 340 272 176 66 191 224 224 223 275 284 69 54 342 274 242 46
266 273 275 269 263 255 249 249 259 269 246 217 208 201 138 177 168 144 186 170 172 141 253 74 169 192 202 187 210 221 251 50 252 250 178 158 194 221 233 259 270 56 347 316 255 53 344
266 262 261 254 258 263 270 266 265 267 228 216 212 196 176 131 173 191 185 152 143 169 179 147 172 183 188 220 220 209 234 178 266 237 197 199 196 200 210 237 256 17 196 301 7 328 333
258 262 259 247 248 246 247 249 253 246 231 211 157 190 190 118 79 199 209 205 187 142 148 191 349 112 75 228 238 261 230 208 247 272 210 243 251 251 237 336 83 46 348 83 360 333 328